This is the latest recevied weather packets stored in our database for station/object KK4WXG. If no packets are shown the sender has not sent any weather packets the latest 10 day(s).
| Time | Temp. | Humidity | Pressure | Rain* | Wind** | Luminosity | Snow |
|---|---|---|---|---|---|---|---|
| 1777992778 | 25° C | 44% | 1010.8 hPa | 0 mm | - | 824 W/m² | - |
| 1777992475 | 25° C | 44% | 1010.7 hPa | 0 mm | - | 815 W/m² | - |
| 1777992174 | 24.44° C | 43% | 1010.9 hPa | 0 mm | - | 805 W/m² | - |
| 1777991870 | 24.44° C | 46% | 1010.9 hPa | 0 mm | - | 788 W/m² | - |
| 1777991568 | 24.44° C | 46% | 1010.8 hPa | 0 mm | - | 775 W/m² | - |
| 1777991264 | 24.44° C | 47% | 1010.9 hPa | 0 mm | - | 764 W/m² | - |
| 1777990962 | 24.44° C | 44% | 1011.1 hPa | 0 mm | - | 750 W/m² | - |
| 1777990659 | 24.44° C | 46% | 1010.9 hPa | 0 mm | - | 739 W/m² | - |
| 1777990357 | 23.89° C | 45% | 1010.9 hPa | 0 mm | - | 692 W/m² | - |
| 1777990052 | 23.89° C | 45% | 1011.1 hPa | 0 mm | - | 709 W/m² | - |
| 1777989749 | 23.33° C | 46% | 1010.8 hPa | 0 mm | - | 693 W/m² | - |
| 1777989446 | 23.33° C | 47% | 1010.8 hPa | 0 mm | - | 674 W/m² | - |
| 1777989142 | 22.78° C | 50% | 1011.1 hPa | 0 mm | - | 657 W/m² | - |
| 1777988838 | 22.78° C | 49% | 1011.2 hPa | 0 mm | - | 640 W/m² | - |
| 1777988536 | 22.22° C | 49% | 1011.3 hPa | 0 mm | - | 622 W/m² | - |
| 1777988232 | 21.67° C | 52% | 1011.2 hPa | 0 mm | - | 598 W/m² | - |
| 1777987929 | 21.67° C | 53% | 1011.2 hPa | 0 mm | - | 584 W/m² | - |
| 1777987624 | 21.67° C | 55% | 1011.2 hPa | 0 mm | - | 564 W/m² | - |
| 1777987322 | 21.11° C | 55% | 1011.4 hPa | 0 mm | - | 546 W/m² | - |
| 1777987019 | 20.56° C | 56% | 1011.3 hPa | 0 mm | - | 527 W/m² | - |
| 1777986717 | 20° C | 57% | 1011.4 hPa | 0 mm | - | 511 W/m² | - |
| 1777986415 | 20.56° C | 56% | 1011.4 hPa | 0 mm | - | 491 W/m² | - |
| 1777986113 | 20° C | 57% | 1011.4 hPa | 0 mm | - | 473 W/m² | - |
| 1777985809 | 19.44° C | 57% | 1011.4 hPa | 0 mm | - | 448 W/m² | - |
| 1777985506 | 19.44° C | 58% | 1011.6 hPa | 0 mm | - | 429 W/m² | - |
* Rain latest hour (hover to see other rain measurements)
** Current wind speed in m/s (hover to see current wind gust speed)